^^
Station Historical Data
Daily Summary for January 13, 2018 Units:  Metric    English   Both
« Previous Day
Next Day »
Daily Weekly Monthly Yearly Custom
  High: Low: Average:
Temperature: -17.8 °C 21.9 °C 26.7 °C
Dew Point: -17.8 °C 6.3 °C 10.3 °C
Humidity: Humidity% 14% 38%
Wind Speed: 0km/h -1609.1km/h 3.9km/h
Wind Gust: 0km/h - -
Wind- - SE
Pressure: 0 hPa 1003.3 hPa -
Precipitation: 0 mm    
Historical Graphs
 
 
Tabular Data for January 13, 2018
Time Temperature Dew Point Pressure Wind Wind Speed Wind Gust Humidity Rainfall Rate (Hourly) solar Conditions
-17.8 °C -17.8 °C 0 hPa Calm     Humidity% 0 mm SolarRadiationWatts/m^2 W/m2 Conditions
00:04 25.1 °C 12.7 °C 1007.7 hPa SSW 13 km/h 20.9 km/h 46% 0 mm 0.0 W/m2
00:14 25.1 °C 12.7 °C 1008 hPa SSW 16.3 km/h 19.3 km/h 46% 0 mm 0.0 W/m2
00:20 25 °C 12.6 °C 1007.7 hPa SSW 16.3 km/h 24.1 km/h 46% 0 mm 0.0 W/m2
00:30 24.7 °C 12.6 °C 1007.7 hPa SW 22.7 km/h 22.7 km/h 47% 0 mm 0.0 W/m2
00:35 24.6 °C 12.5 °C 1007.7 hPa SW 19.5 km/h 19.5 km/h 47% 0 mm 0.0 W/m2
00:45 24.5 °C 12.4 °C 1008 hPa SW 9.7 km/h 16.1 km/h 47% 0 mm 0.0 W/m2
00:50 24.4 °C 12.7 °C 1008 hPa SW 11.1 km/h 14.5 km/h 48% 0 mm 0.0 W/m2
00:55 24.5 °C 12.4 °C 1007.7 hPa SSW 11.1 km/h 16.1 km/h 47% 0 mm 0.0 W/m2
01:00 24.6 °C 12.5 °C 1007.7 hPa SSW 13 km/h 16.1 km/h 47% 0 mm 0.0 W/m2
01:05 24.7 °C 12.6 °C 1007.3 hPa SSW 13 km/h 17.7 km/h 47% 0 mm 0.0 W/m2
01:10 24.6 °C 12.5 °C 1007.3 hPa SSW 17.7 km/h 17.7 km/h 47% 0 mm 0.0 W/m2
01:15 24.6 °C 12.5 °C 1007.3 hPa SSW 14.3 km/h 16.1 km/h 47% 0 mm 0.0 W/m2
01:20 24.6 °C 12.5 °C 1007.3 hPa SSW 16.3 km/h 20.9 km/h 47% 0 mm 0.0 W/m2
01:25 24.5 °C 12.4 °C 1007.3 hPa SSW 16.3 km/h 20.9 km/h 47% 0 mm 0.0 W/m2
01:30 24.4 °C 12.4 °C 1007.3 hPa SSW 14.3 km/h 14.5 km/h 47% 0 mm 0.0 W/m2
01:35 24.4 °C 12.4 °C 1007.3 hPa SSW 17.7 km/h 17.7 km/h 47% 0 mm 0.0 W/m2
01:40 24.3 °C 12.6 °C 1007 hPa SSW 17.7 km/h 19.3 km/h 48% 0 mm 0.0 W/m2
01:46 24.3 °C 12.6 °C 1007 hPa SSW 17.7 km/h 17.7 km/h 48% 0 mm 0.0 W/m2
01:56 24.2 °C 12.2 °C 1007 hPa SSW 9.7 km/h 12.9 km/h 47% 0 mm 0.0 W/m2
02:01 24.1 °C 12.4 °C 1007 hPa SSW 13 km/h 16.1 km/h 48% 0 mm 0.0 W/m2
02:06 24.1 °C 12.4 °C 1007 hPa SSW 16.3 km/h 16.3 km/h 48% 0 mm 0.0 W/m2
02:11 24 °C 12.3 °C 1007 hPa SSW 14.3 km/h 16.1 km/h 48% 0 mm 0.0 W/m2
02:16 23.9 °C 12.2 °C 1006.7 hPa SSW 16.3 km/h 16.3 km/h 48% 0 mm 0.0 W/m2
02:21 23.9 °C 12.2 °C 1006.7 hPa SSW 14.3 km/h 19.3 km/h 48% 0 mm 0.0 W/m2
02:26 23.8 °C 12.1 °C 1006.7 hPa SW 14.3 km/h 17.7 km/h 48% 0 mm 0.0 W/m2
02:32 23.8 °C 12.1 °C 1006.7 hPa SW 14.3 km/h 14.5 km/h 48% 0 mm 0.0 W/m2
02:37 23.8 °C 12.1 °C 1006.7 hPa SW 13 km/h 16.1 km/h 48% 0 mm 0.0 W/m2
02:42 23.8 °C 12.1 °C 1006.7 hPa SW 14.3 km/h 16.1 km/h 48% 0 mm 0.0 W/m2
02:47 23.8 °C 11.8 °C 1006.7 hPa SW 11.1 km/h 14.5 km/h 47% 0 mm 0.0 W/m2
02:52 23.9 °C 11.6 °C 1006.3 hPa SW 11.1 km/h 12.9 km/h 46% 0 mm 0.0 W/m2
02:57 23.9 °C 11.2 °C 1006.3 hPa SW 11.1 km/h 14.5 km/h 45% 0 mm 0.0 W/m2
03:02 24 °C 11.7 °C 1006.3 hPa SW 14.3 km/h 14.5 km/h 46% 0 mm 0.0 W/m2
03:12 23.6 °C 11.6 °C 1006.3 hPa SW 16.3 km/h 17.7 km/h 47% 0 mm 0.0 W/m2
03:17 23.4 °C 11.4 °C 1006.3 hPa SW 9.7 km/h 19.3 km/h 47% 0 mm 0.0 W/m2
03:22 23.3 °C 11.4 °C 1006.3 hPa SW 13 km/h 20.9 km/h 47% 0 mm 0.0 W/m2
03:32 23.2 °C 11.6 °C 1006.3 hPa SW 17.7 km/h 20.9 km/h 48% 0 mm 0.0 W/m2
03:37 23.1 °C 11.5 °C 1006 hPa SW 16.3 km/h 22.5 km/h 48% 0 mm 0.0 W/m2
03:47 23 °C 11.4 °C 1006 hPa SW 14.3 km/h 17.7 km/h 48% 0 mm 0.0 W/m2
04:02 23 °C 10.8 °C 1006 hPa SW 19.5 km/h 19.5 km/h 46% 0 mm 0.0 W/m2
04:07 23 °C 10.8 °C 1006 hPa SW 13 km/h 17.7 km/h 46% 0 mm 0.0 W/m2
04:18 23 °C 10.1 °C 1006 hPa SW 17.7 km/h 19.3 km/h 44% 0 mm 0.0 W/m2
04:23 23 °C 9.7 °C 1006 hPa SW 16.3 km/h 17.7 km/h 43% 0 mm 0.0 W/m2
04:28 23 °C 9.7 °C 1006 hPa SW 14.3 km/h 17.7 km/h 43% 0 mm 0.0 W/m2
04:33 23 °C 9.4 °C 1006 hPa SW 13 km/h 16.1 km/h 42% 0 mm 0.0 W/m2
04:43 22.9 °C 9.3 °C 1006 hPa SW 11.1 km/h 14.5 km/h 42% 0 mm 0.0 W/m2
04:48 22.9 °C 8.9 °C 1006 hPa SW 13 km/h 17.7 km/h 41% 0 mm 0.0 W/m2
04:53 22.9 °C 8.9 °C 1006 hPa SW 13 km/h 17.7 km/h 41% 0 mm 0.0 W/m2
05:23 22.5 °C 10 °C 1006.3 hPa SW 9.7 km/h 17.7 km/h 45% 0 mm 0.0 W/m2
05:33 22.4 °C 9.9 °C 1006.3 hPa SW 14.3 km/h 16.1 km/h 45% 0 mm 0.0 W/m2
05:38 22.4 °C 9.9 °C 1006.3 hPa SW 17.7 km/h 17.7 km/h 45% 0 mm 0.0 W/m2
05:43 22.4 °C 9.9 °C 1006.3 hPa SW 13 km/h 19.3 km/h 45% 0 mm 0.0 W/m2
05:49 22.3 °C 9.5 °C 1006.3 hPa SW 16.3 km/h 17.7 km/h 44% 0 mm 0.0 W/m2
05:54 22.2 °C 9.7 °C 1006.7 hPa SW 13 km/h 17.7 km/h 45% 0 mm 0.0 W/m2
06:04 22.1 °C 9.6 °C 1006.7 hPa SW 11.1 km/h 14.5 km/h 45% 0 mm 0.0 W/m2
06:19 21.9 °C 9.8 °C 1006.7 hPa SW 11.1 km/h 14.5 km/h 46% 0 mm 12.0 W/m2
06:29 22 °C 9.2 °C 1006.7 hPa SW 7.9 km/h 12.9 km/h 44% 0 mm 23.0 W/m2
06:34 22.1 °C 9.3 °C 1006.7 hPa SW 9.7 km/h 12.9 km/h 44% 0 mm 32.0 W/m2
06:39 22 °C 9.2 °C 1006.7 hPa SW 16.3 km/h 16.3 km/h 44% 0 mm 44.0 W/m2
06:44 22.1 °C 9.3 °C 1007 hPa SW 17.7 km/h 17.7 km/h 44% 0 mm 58.0 W/m2
06:50 22.1 °C 9.6 °C 1006.7 hPa SW 11.1 km/h 17.7 km/h 45% 0 mm 72.0 W/m2
07:01 22.2 °C 9.7 °C 1006.7 hPa SW 11.1 km/h 14.5 km/h 45% 0 mm 105.0 W/m2
07:06 22.3 °C 9.8 °C 1006.7 hPa SW 9.7 km/h 14.5 km/h 45% 0 mm 127.0 W/m2
07:15 22.7 °C 9.8 °C 1006.7 hPa SW 14.3 km/h 17.7 km/h 44% 0 mm 167.0 W/m2
07:20 22.9 °C 10 °C 1006.7 hPa SW 13 km/h 14.5 km/h 44% 0 mm 195.0 W/m2
07:30 23.3 °C 10.4 °C 1007 hPa SW 14.3 km/h 17.7 km/h 44% 0 mm 271.0 W/m2
07:35 23.4 °C 10.1 °C 1007 hPa SW 17.7 km/h 17.7 km/h 43% 0 mm 308.0 W/m2
07:45 24 °C 9.9 °C 1007 hPa SW 19.5 km/h 20.9 km/h 41% 0 mm 366.0 W/m2
07:50 24.2 °C 10.1 °C 1007 hPa SW 14.3 km/h 19.3 km/h 41% 0 mm 387.0 W/m2
07:55 24.3 °C 9.8 °C 1007 hPa SW 20.9 km/h 20.9 km/h 40% 0 mm 341.0 W/m2
08:00 24.3 °C 9.8 °C 1007 hPa SW 19.5 km/h 20.9 km/h 40% 0 mm 190.0 W/m2
08:06 24.2 °C 10.1 °C 1007 hPa SW 19.5 km/h 20.9 km/h 41% 0 mm 155.0 W/m2
08:12 24.2 °C 10.1 °C 1007 hPa SW 16.3 km/h 22.5 km/h 41% 0 mm 162.0 W/m2
08:17 24.2 °C 10.1 °C 1007 hPa SW 17.7 km/h 20.9 km/h 41% 0 mm 185.0 W/m2
08:32 24.5 °C 10.4 °C 1007 hPa SW 17.7 km/h 20.9 km/h 41% 0 mm 251.0 W/m2
08:40 24.9 °C 10 °C 1007.3 hPa SW 20.9 km/h 22.5 km/h 39% 0 mm 348.0 W/m2
08:50 24.9 °C 10.4 °C 1007.3 hPa SW 17.7 km/h 20.9 km/h 40% 0 mm 197.0 W/m2
09:05 24.9 °C 10.4 °C 1007.3 hPa SW 19.5 km/h 20.9 km/h 40% 0 mm 214.0 W/m2
09:12 24.9 °C 10.4 °C 1007.3 hPa SW 16.3 km/h 22.5 km/h 40% 0 mm 232.0 W/m2
09:22 24.9 °C 10.4 °C 1007.3 hPa SW 16.3 km/h 25.7 km/h 40% 0 mm 260.0 W/m2
09:30 25.3 °C 10.3 °C 1007.3 hPa SW 19.5 km/h 20.9 km/h 39% 0 mm 320.0 W/m2
09:41 26.4 °C 10.5 °C 1007 hPa SW 16.3 km/h 20.9 km/h 37% 0 mm 858.0 W/m2
09:46 26.7 °C 10.8 °C 1007 hPa SW 16.3 km/h 24.1 km/h 37% 0 mm 884.0 W/m2
09:55 27.2 °C 10.4 °C 1007 hPa SW 20.9 km/h 25.7 km/h 35% 0 mm 939.0 W/m2
10:00 27.1 °C 10.3 °C 1007 hPa SSW 16.3 km/h 24.1 km/h 35% 0 mm 636.0 W/m2
10:05 26.8 °C 10.5 °C 1007.3 hPa SW 17.7 km/h 24.1 km/h 36% 0 mm 378.0 W/m2
10:10 26.6 °C 10.3 °C 1007 hPa SW 14.3 km/h 24.1 km/h 36% 0 mm 348.0 W/m2
10:15 26.5 °C 10.2 °C 1007 hPa SW 20.9 km/h 25.7 km/h 36% 0 mm 339.0 W/m2
10:25 26.5 °C 10.2 °C 1007 hPa SW 14.3 km/h 20.9 km/h 36% 0 mm 406.0 W/m2
10:30 26.7 °C 10.4 °C 1007 hPa SW 16.3 km/h 22.5 km/h 36% 0 mm 823.0 W/m2
10:35 26.9 °C 10.6 °C 1007 hPa SW 16.3 km/h 20.9 km/h 36% 0 mm 503.0 W/m2
10:40 27.2 °C 10.8 °C 1007 hPa SW 17.7 km/h 20.9 km/h 36% 0 mm 1111.0 W/m2
10:56 28.3 °C 10.5 °C 1007 hPa SW 19.5 km/h 22.5 km/h 33% 0 mm 550.0 W/m2
11:01 28.7 °C 10.4 °C 1007 hPa SW 13 km/h 22.5 km/h 32% 0 mm 510.0 W/m2
11:06 29 °C 10.6 °C 1007 hPa SW 16.3 km/h 22.5 km/h 32% 0 mm 483.0 W/m2
11:13 29.1 °C 10.2 °C 1007 hPa SW 22.7 km/h 24.1 km/h 31% 0 mm 403.0 W/m2
11:16 29.4 °C 10.5 °C 1007 hPa SW 14.3 km/h 22.5 km/h 31% 0 mm 441.0 W/m2
11:26 29.7 °C 10.3 °C 1007 hPa SW 16.3 km/h 22.5 km/h 30% 0 mm 381.0 W/m2
11:41 30.6 °C 10 °C 1007 hPa SW 9.7 km/h 20.9 km/h 28% 0 mm 329.0 W/m2
11:56 31.2 °C 10 °C 1006.7 hPa SW 17.7 km/h 25.7 km/h 27% 0 mm 364.0 W/m2
12:21 32.2 °C 9.7 °C 1006.7 hPa SW 22.7 km/h 24.1 km/h 25% 0 mm 524.0 W/m2
12:36 33.1 °C 9.8 °C 1006.3 hPa SW 13 km/h 24.1 km/h 24% 0 mm 506.0 W/m2
12:51 34.1 °C 9.4 °C 1006.3 hPa SW 17.7 km/h 25.7 km/h 22% 0 mm 617.0 W/m2
13:12 35.2 °C 9.6 °C 1006 hPa SW 17.7 km/h 22.5 km/h 21% 0 mm 809.0 W/m2
13:22 36 °C 8.7 °C 1005.6 hPa Calm   14.5 km/h 19% 0 mm 1099.0 W/m2
13:37 36.3 °C 9 °C 1005.6 hPa South 16.3 km/h 17.7 km/h 19% 0 mm 991.0 W/m2
13:52 36.7 °C 8.5 °C 1005.3 hPa SSW 13 km/h 13 km/h 18% 0 mm 947.0 W/m2
14:09 36.7 °C 8.5 °C 1005.3 hPa North -1609.1 km/h -1607.7 km/h 18% 0 mm 947.0 W/m2
14:49 38.1 °C 7.9 °C 1004.6 hPa SW 9.7 km/h 17.7 km/h 16% 0 mm 874.0 W/m2
15:05 38.2 °C 8 °C 1004.6 hPa SSW 16.3 km/h 25.7 km/h 16% 0 mm 856.0 W/m2
15:14 38.5 °C 8.2 °C 1004.3 hPa SSW 24.1 km/h 24.1 km/h 16% 0 mm 840.0 W/m2
16:07 38.6 °C 7.4 °C 1003.9 hPa SSW 17.7 km/h 20.9 km/h 15% 0 mm 731.0 W/m2
16:20 39 °C 6.7 °C 1003.6 hPa SSW 17.7 km/h 25.7 km/h 14% 0 mm 717.0 W/m2
16:43 39.2 °C 6.8 °C 1003.3 hPa SSW 24.1 km/h 25.7 km/h 14% 0 mm 589.0 W/m2
16:52 38.9 °C 6.6 °C 1003.6 hPa SSW 19.5 km/h 24.1 km/h 14% 0 mm 550.0 W/m2
17:02 38.9 °C 6.6 °C 1003.3 hPa South 27.4 km/h 29 km/h 14% 0 mm 510.0 W/m2
17:13 38.8 °C 6.5 °C 1003.3 hPa South 19.5 km/h 29 km/h 14% 0 mm 483.0 W/m2
17:43 38.6 °C 6.3 °C 1003.3 hPa South 20.9 km/h 29 km/h 14% 0 mm 381.0 W/m2
17:54 38 °C 7.8 °C 1003.3 hPa SSW 20.9 km/h 38.6 km/h 16% 0 mm 343.0 W/m2
18:06 37.2 °C 9.7 °C 1003.3 hPa SSW 28.8 km/h 38.6 km/h 19% 0 mm 297.0 W/m2
18:20 36.1 °C 10.3 °C 1003.9 hPa SW 35.2 km/h 40.2 km/h 21% 0 mm 258.0 W/m2
18:31 35.7 °C 10.7 °C 1003.9 hPa SSW 35.2 km/h 41.8 km/h 22% 0 mm 229.0 W/m2
18:46 34.9 °C 10.7 °C 1004.3 hPa SW 28.8 km/h 40.2 km/h 23% 0 mm 167.0 W/m2
19:27 32.9 °C 12 °C 1005 hPa SSW 20.9 km/h 35.4 km/h 28% 0 mm 53.0 W/m2
19:42 31.8 °C 12.1 °C 1005 hPa SSW 28.8 km/h 29 km/h 30% 0 mm 32.0 W/m2
19:56 30.9 °C 12.3 °C 1005.6 hPa SSW 25.9 km/h 27.4 km/h 32% 0 mm 7.0 W/m2
20:21 29.4 °C 12.3 °C 1006 hPa SSW 16.3 km/h 24.1 km/h 35% 0 mm 0.0 W/m2
20:36 28.9 °C 11.9 °C 1006 hPa SW 19.5 km/h 27.4 km/h 35% 0 mm 0.0 W/m2
20:49 28.3 °C 11.8 °C 1006.3 hPa SSW 17.7 km/h 29 km/h 36% 0 mm 0.0 W/m2
20:58 28 °C 11.5 °C 1006.3 hPa SSW 17.7 km/h 25.7 km/h 36% 0 mm 0.0 W/m2
21:07 27.9 °C 11.4 °C 1006.3 hPa SW 17.7 km/h 24.1 km/h 36% 0 mm 0.0 W/m2
Canyon Roadhouse, Fishriver Canyon, Namibia
Compliments of Weather Underground - 2.25 mb